Location: Newark
(42.8481°N, 0.4872°E)
Time: 17:09:38
(UTC+00:00)

Vanguard 3 - Pass Details

Date: 05 November 2020
Orbit: 508 x 3262 km, 33.3° (Epoch: 28 November)

Event Time Altitude Azimuth Distance (km) Brightness Sun altitude
Rises 03:34:46 0° 236° (WSW) 5,134 - -33.8°
Reaches altitude 10° 03:37:45 10° 232° (SW) 4,456 - -33.2°
Exits shadow 03:43:46 34° 214° (SW) 3,436 9.9 -32.2°
Maximum altitude 03:50:38 53° 160° (SSE) 3,215 10.0 -30.9°
Drops below altitude 10° 04:09:09 10° 91° (E) 6,202 12.6 -27.5°
Sets 04:14:11 0° 88° (E) 7,206 13.3 -26.6°
